This demonstration page uses our WeatherBlox Daily Observations layout. Learn more.

Left ArrowRight Arrow

39.12711, -84.51439

Hourly Observations for June 20, 2018

Temp ( °F °C ) Dew Point ( °F °C ) Humidity (%) Winds ( mph kmh ) Pressure ( in mb ) Visibility ( mi km ) Precip ( " mm )
12:53 am 00:53 Partly Cloudy 72 22.2 72 22.2 100 100 S 5 7 29.92 1013 9 14 N/A
1:53 am 01:53 Clear 71 21.7 71 21.7 100 100 SSW 5 7 29.90 1012 10 16 N/A
2:53 am 02:53 Clear 72 22.2 71 21.7 97 97 N N/A 29.88 1012 10 16 N/A
3:53 am 03:53 Clear 71 21.7 70 21.1 96 96 W 3 6 29.86 1011 10 16 N/A
4:53 am 04:53 Clear 71 21.7 71 21.7 100 100 N N/A 29.86 1011 9 14 N/A
5:53 am 05:53 Clear 70 21.1 70 21.1 100 100 N N/A 29.88 1012 9 14 N/A
6:53 am 06:53 Partly Cloudy 71 21.7 71 21.7 100 100 N N/A 29.89 1012 7 11 N/A
7:53 am 07:53 Mostly Sunny 74 23.3 73 22.8 97 97 SSW 5 7 29.90 1012 10 16 N/A
8:53 am 08:53 Mostly Sunny 79 26.1 74 23.3 85 85 WSW 7 11 29.89 1012 10 16 N/A
9:53 am 09:53 Partly Cloudy 81 27.2 72 22.2 74 74 WNW 8 13 29.89 1012 10 16 N/A
10:53 am 10:53 Mostly Cloudy 83 28.3 73 22.8 72 72 VRB 5 7 29.88 1012 10 16 N/A
11:53 am 11:53 Partly Cloudy 85 29.4 72 22.2 65 65 W 9 15 29.87 1012 10 16 N/A
12:53 pm 12:53 Partly Cloudy 87 30.6 73 22.8 63 63 SW 7 11 29.85 1011 10 16 N/A
1:53 pm 13:53 Partly Cloudy 89 31.7 72 22.2 57 57 W 13 20 29.84 1010 10 16 N/A
2:53 pm 14:53 Partly Cloudy 89 31.7 71 21.7 55 55 W 13 20 29.82 1010 10 16 N/A
3:53 pm 15:53 Partly Cloudy 89 31.7 70 21.1 53 53 WNW 10 17 29.79 1009 10 16 N/A
4:53 pm 16:53 Partly Cloudy 87 30.6 68 20 53 53 WNW 14 22 29.80 1009 10 16 N/A
5:53 pm 17:53 Partly Cloudy 88 31.1 70 21.1 55 55 W 8 13 29.80 1009 10 16 N/A
6:53 pm 18:53 Partly Cloudy 87 30.6 69 20.6 55 55 W 10 17 29.78 1008 10 16 N/A
7:53 pm 19:53 Mostly Sunny 84 28.9 69 20.6 61 61 W 14 22 29.78 1009 10 16 N/A
8:53 pm 20:53 Sunny 83 28.3 68 20 61 61 W 9 15 29.78 1009 10 16 N/A
9:53 pm 21:53 Clear 81 27.2 68 20 65 65 W 7 11 29.81 1010 10 16 N/A
10:53 pm 22:53 Mostly Cloudy 81 27.2 69 20.6 67 67 SW 3 6 29.83 1010 10 16 N/A
11:53 pm 23:53 Mostly Cloudy 79 26.1 71 21.7 77 77 N N/A 29.82 1010 10 16 N/A

Powered by AerisWeather